Location: Beadle
(51.4667°N, 109.0000°W)
Time: 22:37:01
(UTC+00:00)

DIWATA 2B (PO-101) - Pass Details

Date: 03 July 2022
Orbit: 583 x 599 km, 98.0° (Epoch: 16 August)

Event Time Altitude Azimuth Distance (km) Brightness Sun altitude
Exits shadow 09:58:55 10° 212° (SSW) 1,943 ? -7.9°
Reaches altitude 10° 09:58:56 10° 212° (SSW) 1,938 ? -7.9°
Maximum altitude 10:02:22 24° 267° (W) 1,254 ? -7.5°
Drops below altitude 10° 10:05:51 10° 322° (NW) 1,951 ? -7.2°
Sets 10:08:22 0° 336° (NNW) 2,859 ? -7.0°
